| time (UTC) | temp C | wind direction | speed KPH | gust KPH | rain 1hr cm | rain 24hr cm | rain mn cm | humidity % | barometer mb |
| 20260504160314 | 20 | 199 | 6.4 | 19.3 | 0.00 | 0.00 | 0.00 | 48 | 1005.4 |
| 20260504150314 | 17 | 236 | 8.0 | 17.7 | 0.00 | 0.00 | 0.00 | 52 | 1005.8 |
| 20260504141314 | 16 | 218 | 11.3 | 19.3 | 0.00 | 0.00 | 0.00 | 57 | 1006.1 |
| 20260504140314 | 15 | 216 | 8.0 | 17.7 | 0.00 | 0.00 | 0.00 | 58 | 1006.1 |
| 20260504130314 | 12 | 216 | 6.4 | 12.9 | 0.00 | 0.00 | 0.00 | 66 | 1006.8 |
| 20260504120314 | 10 | 218 | 6.4 | 17.7 | 0.00 | 0.00 | 0.00 | 71 | 1006.8 |
| 20260504110314 | 8 | 208 | 4.8 | 9.7 | 0.00 | 0.00 | 0.00 | 75 | 1006.5 |
| 20260504100313 | 8 | 209 | 6.4 | 11.3 | 0.00 | 0.00 | 0.00 | 75 | 1006.5 |
| 20260504081313 | 8 | 210 | 6.4 | 12.9 | 0.00 | 0.00 | 0.00 | 70 | 1007.5 |
| 20260504080313 | 8 | 216 | 6.4 | 12.9 | 0.00 | 0.00 | 0.00 | 70 | 1007.5 |
| 20260504070313 | 9 | 217 | 6.4 | 14.5 | 0.00 | 0.00 | 0.00 | 68 | 1008.2 |
| 20260504050313 | 10 | 206 | 8.0 | 14.5 | 0.00 | 0.00 | 0.00 | 62 | 1009.5 |
| 20260504045313 | 10 | 205 | 8.0 | 14.5 | 0.00 | 0.00 | 0.00 | 63 | 1009.8 |
| 20260504044313 | 10 | 214 | 6.4 | 14.5 | 0.00 | 0.00 | 0.00 | 62 | 1009.8 |
| 20260504043313 | 10 | 216 | 8.0 | 14.5 | 0.00 | 0.00 | 0.00 | 62 | 1009.8 |
| 20260504042313 | 10 | 202 | 8.0 | 17.7 | 0.00 | 0.00 | 0.00 | 62 | 1010.2 |
| 20260504041313 | 10 | 214 | 6.4 | 12.9 | 0.00 | 0.00 | 0.00 | 62 | 1009.8 |
| 20260504040313 | 10 | 207 | 8.0 | 16.1 | 0.00 | 0.00 | 0.00 | 61 | 1010.2 |
| 20260504035313 | 10 | 205 | 6.4 | 14.5 | 0.00 | 0.00 | 0.00 | 61 | 1010.2 |
| 20260504034313 | 10 | 209 | 9.7 | 17.7 | 0.00 | 0.00 | 0.00 | 61 | 1010.5 |
| 20260504033313 | 10 | 202 | 8.0 | 16.1 | 0.00 | 0.00 | 0.00 | 61 | 1010.5 |
| 20260504032313 | 10 | 217 | 4.8 | 11.3 | 0.00 | 0.00 | 0.00 | 62 | 1010.5 |
| 20260504031313 | 10 | 206 | 6.4 | 14.5 | 0.00 | 0.00 | 0.00 | 63 | 1010.5 |
| 20260504030313 | 10 | 204 | 8.0 | 14.5 | 0.00 | 0.00 | 0.00 | 64 | 1010.9 |
| 20260504025313 | 10 | 209 | 4.8 | 8.0 | 0.00 | 0.00 | 0.00 | 65 | 1010.9 |
| 20260504024313 | 10 | 203 | 4.8 | 9.7 | 0.00 | 0.00 | 0.00 | 65 | 1010.9 |
| 20260504023313 | 10 | 200 | 4.8 | 11.3 | 0.00 | 0.00 | 0.00 | 65 | 1010.9 |
| 20260504022313 | 10 | 207 | 4.8 | 11.3 | 0.00 | 0.00 | 0.00 | 65 | 1010.9 |
| 20260504021313 | 10 | 196 | 4.8 | 11.3 | 0.00 | 0.00 | 0.00 | 65 | 1010.9 |
| 20260504020313 | 10 | 192 | 4.8 | 9.7 | 0.00 | 0.00 | 0.00 | 64 | 1010.9 |
| 20260504015313 | 10 | 197 | 3.2 | 6.4 | 0.00 | 0.00 | 0.00 | 64 | 1010.9 |
| 20260504014313 | 10 | 196 | 3.2 | 6.4 | 0.00 | 0.00 | 0.00 | 63 | 1010.9 |
| 20260504013313 | 11 | 201 | 4.8 | 11.3 | 0.00 | 0.00 | 0.00 | 62 | 1010.9 |
| 20260504012313 | 11 | 206 | 6.4 | 11.3 | 0.00 | 0.00 | 0.00 | 61 | 1010.9 |
| 20260504011313 | 11 | 215 | 6.4 | 12.9 | 0.00 | 0.00 | 0.00 | 60 | 1010.9 |
| 20260504010313 | 11 | 206 | 6.4 | 11.3 | 0.00 | 0.00 | 0.00 | 59 | 1010.9 |
| 20260504005313 | 12 | 207 | 6.4 | 14.5 | 0.00 | 0.00 | 0.00 | 59 | 1011.2 |
| 20260504004313 | 12 | 209 | 6.4 | 16.1 | 0.00 | 0.00 | 0.00 | 59 | 1011.2 |
| 20260504003313 | 12 | 220 | 11.3 | 19.3 | 0.00 | 0.00 | 0.00 | 57 | 1010.9 |
| 20260504002313 | 12 | 212 | 9.7 | 19.3 | 0.00 | 0.00 | 0.00 | 57 | 1010.9 |
| 20260504001313 | 12 | 215 | 11.3 | 19.3 | 0.00 | 0.00 | 0.00 | 56 | 1010.9 |
| 20260504000313 | 12 | 227 | 16.1 | 29.0 | 0.00 | 0.00 | 0.00 | 54 | 1010.9 |
| 20260503235313 | 13 | 226 | 12.9 | 27.4 | 0.00 | 0.00 | 0.00 | 53 | 1010.9 |
| 20260503234313 | 13 | 223 | 16.1 | 25.7 | 0.00 | 0.00 | 0.00 | 54 | 1010.5 |
| 20260503233313 | 13 | 224 | 14.5 | 27.4 | 0.00 | 0.00 | 0.00 | 54 | 1010.5 |
| 20260503232313 | 14 | 238 | 12.9 | 24.1 | 0.00 | 0.00 | 0.00 | 52 | 1010.5 |
| 20260503231313 | 15 | 234 | 16.1 | 33.8 | 0.00 | 0.00 | 0.00 | 48 | 1010.5 |
| 20260503230313 | 15 | 219 | 14.5 | 24.1 | 0.00 | 0.00 | 0.00 | 43 | 1010.9 |
| 20260503225313 | 16 | 216 | 16.1 | 27.4 | 0.00 | 0.00 | 0.00 | 42 | 1010.9 |
| 20260503224313 | 16 | 232 | 14.5 | 25.7 | 0.00 | 0.00 | 0.00 | 42 | 1010.5 |
| 20260503223313 | 16 | 216 | 14.5 | 32.2 | 0.00 | 0.00 | 0.00 | 41 | 1010.5 |
| 20260503222313 | 16 | 230 | 16.1 | 33.8 | 0.00 | 0.00 | 0.00 | 40 | 1010.9 |
| 20260503221313 | 17 | 226 | 14.5 | 33.8 | 0.00 | 0.00 | 0.00 | 38 | 1010.5 |
| 20260503220313 | 17 | 230 | 14.5 | 25.7 | 0.00 | 0.00 | 0.00 | 38 | 1010.9 |
| 20260503215313 | 17 | 226 | 17.7 | 30.6 | 0.00 | 0.00 | 0.00 | 38 | 1010.5 |
| 20260503214313 | 18 | 228 | 14.5 | 33.8 | 0.00 | 0.00 | 0.00 | 37 | 1010.9 |
| 20260503213313 | 18 | 238 | 16.1 | 29.0 | 0.00 | 0.00 | 0.00 | 36 | 1010.9 |
| 20260503212313 | 17 | 222 | 19.3 | 37.0 | 0.00 | 0.00 | 0.00 | 36 | 1010.9 |
| 20260503211313 | 17 | 236 | 17.7 | 37.0 | 0.00 | 0.00 | 0.00 | 37 | 1010.9 |
| 20260503210313 | 17 | 221 | 12.9 | 24.1 | 0.00 | 0.00 | 0.00 | 38 | 1011.2 |
| 20260503205313 | 17 | 211 | 16.1 | 25.7 | 0.00 | 0.00 | 0.00 | 38 | 1011.2 |
| 20260503204313 | 17 | 225 | 14.5 | 27.4 | 0.00 | 0.00 | 0.00 | 38 | 1011.2 |
| 20260503203313 | 17 | 214 | 19.3 | 33.8 | 0.00 | 0.00 | 0.00 | 37 | 1011.2 |
| 20260503202313 | 17 | 226 | 17.7 | 30.6 | 0.00 | 0.00 | 0.00 | 37 | 1011.2 |
| 20260503201313 | 18 | 220 | 12.9 | 27.4 | 0.00 | 0.00 | 0.00 | 37 | 1011.5 |
| 20260503200313 | 17 | 222 | 17.7 | 33.8 | 0.00 | 0.00 | 0.00 | 36 | 1011.5 |
| 20260503195313 | 16 | 214 | 16.1 | 33.8 | 0.00 | 0.00 | 0.00 | 37 | 1011.5 |
| 20260503194313 | 17 | 223 | 14.5 | 27.4 | 0.00 | 0.00 | 0.00 | 36 | 1011.5 |
| 20260503193313 | 17 | 228 | 16.1 | 33.8 | 0.00 | 0.00 | 0.00 | 35 | 1011.9 |
| 20260503192313 | 17 | 230 | 16.1 | 35.4 | 0.00 | 0.00 | 0.00 | 36 | 1011.9 |
| 20260503191313 | 17 | 216 | 16.1 | 37.0 | 0.00 | 0.00 | 0.00 | 35 | 1012.2 |
| 20260503190313 | 17 | 233 | 14.5 | 25.7 | 0.00 | 0.00 | 0.00 | 35 | 1012.2 |
| 20260503185313 | 17 | 224 | 17.7 | 35.4 | 0.00 | 0.00 | 0.00 | 36 | 1012.2 |
| 20260503184313 | 17 | 205 | 17.7 | 32.2 | 0.00 | 0.00 | 0.00 | 36 | 1012.6 |
| 20260503183313 | 17 | 214 | 20.9 | 30.6 | 0.00 | 0.00 | 0.00 | 36 | 1012.6 |
| 20260503182313 | 16 | 229 | 19.3 | 37.0 | 0.00 | 0.00 | 0.00 | 36 | 1012.6 |
| 20260503181313 | 16 | 223 | 20.9 | 32.2 | 0.00 | 0.00 | 0.00 | 34 | 1013.2 |
| 20260503180312 | 16 | 229 | 19.3 | 33.8 | 0.00 | 0.00 | 0.00 | 36 | 1013.2 |
| 20260503175313 | 16 | 221 | 12.9 | 25.7 | 0.00 | 0.00 | 0.00 | 38 | 1013.2 |
| 20260503174312 | 16 | 214 | 16.1 | 29.0 | 0.00 | 0.00 | 0.00 | 38 | 1013.6 |
| 20260503173313 | 16 | 220 | 14.5 | 25.7 | 0.00 | 0.00 | 0.00 | 37 | 1013.6 |
| 20260503172312 | 16 | 225 | 16.1 | 30.6 | 0.00 | 0.00 | 0.00 | 38 | 1013.9 |
| 20260503171312 | 16 | 230 | 12.9 | 27.4 | 0.00 | 0.00 | 0.00 | 40 | 1014.2 |
| 20260503170312 | 15 | 228 | 12.9 | 24.1 | 0.00 | 0.00 | 0.00 | 41 | 1014.2 |